Time,TemperatureF,DewpointF,PressureIn,WindDirection,WindDirectionDegrees,WindSpeedMPH,WindSpeedGustMPH,Humidity,HourlyPrecipIn,Conditions,Clouds,dailyrainin,SoftwareType,DateUTC
2013-06-08 00:05:00,56.2,54.5,29.94,NE,41,0.0,0.0,94,0.00,,SKC,0.00,VWS V12.07,2013-06-08 05:05:00,
2013-06-08 00:12:00,56.3,54.6,29.94,NE,41,0.0,0.0,94,0.00,,SKC,0.00,VWS V12.07,2013-06-08 05:12:00,
2013-06-08 00:15:00,56.2,54.5,29.94,NE,41,0.0,0.0,94,0.00,,SKC,0.00,VWS V12.07,2013-06-08 05:15:00,
2013-06-08 00:22:00,55.9,54.2,29.94,NE,41,0.0,0.0,94,0.00,,SKC,0.00,VWS V12.07,2013-06-08 05:22:00,
2013-06-08 00:29:00,55.9,54.5,29.95,NE,38,0.0,0.0,95,0.00,,SKC,0.00,VWS V12.07,2013-06-08 05:29:00,
2013-06-08 00:35:00,55.8,54.4,29.95,NE,39,0.0,0.0,95,0.00,,SKC,0.00,VWS V12.07,2013-06-08 05:35:00,
2013-06-08 00:42:00,55.5,53.8,29.95,NE,38,0.0,0.0,94,0.00,,SKC,0.00,VWS V12.07,2013-06-08 05:42:00,
2013-06-08 00:49:00,55.1,53.4,29.95,NE,39,0.0,0.0,94,0.00,,SKC,0.00,VWS V12.07,2013-06-08 05:49:00,
2013-06-08 00:55:00,55.1,53.7,29.95,NE,39,0.0,0.0,95,0.00,,SKC,0.00,VWS V12.07,2013-06-08 05:55:00,
2013-06-08 01:02:00,55.1,53.7,29.95,NE,39,0.0,0.0,95,0.00,,SKC,0.00,VWS V12.07,2013-06-08 06:02:00,
2013-06-08 01:09:00,55.3,54.2,29.95,NE,39,0.0,0.0,96,0.00,,SKC,0.00,VWS V12.07,2013-06-08 06:09:00,
2013-06-08 01:15:00,55.5,54.4,29.95,NE,39,0.0,0.0,96,0.00,,SKC,0.00,VWS V12.07,2013-06-08 06:15:00,
2013-06-08 01:22:00,55.8,54.7,29.96,NE,38,0.0,0.0,96,0.00,,SKC,0.00,VWS V12.07,2013-06-08 06:22:00,
2013-06-08 01:28:00,56.3,55.2,29.95,NE,38,0.0,0.0,96,0.00,,SKC,0.00,VWS V12.07,2013-06-08 06:28:00,
2013-06-08 01:34:00,56.4,55.3,29.95,NE,38,0.0,0.0,96,0.00,,SKC,0.00,VWS V12.07,2013-06-08 06:34:00,
2013-06-08 01:41:00,56.5,55.1,29.95,NE,39,0.0,0.0,95,0.00,,SKC,0.00,VWS V12.07,2013-06-08 06:41:00,
2013-06-08 01:48:00,56.1,54.4,29.95,NE,39,0.0,0.0,94,0.00,,SKC,0.00,VWS V12.07,2013-06-08 06:48:00,
2013-06-08 01:54:00,56.2,54.8,29.95,NE,39,0.0,0.0,95,0.00,,SKC,0.00,VWS V12.07,2013-06-08 06:54:00,
2013-06-08 02:02:00,55.8,54.4,29.94,NE,38,0.0,0.0,95,0.00,,SKC,0.00,VWS V12.07,2013-06-08 07:02:00,
2013-06-08 02:08:00,55.6,54.2,29.95,NE,38,0.0,0.0,95,0.00,,SKC,0.00,VWS V12.07,2013-06-08 07:08:00,
2013-06-08 02:14:00,55.4,54.3,29.94,NE,39,0.0,0.0,96,0.00,,SKC,0.00,VWS V12.07,2013-06-08 07:14:00,
2013-06-08 02:21:00,55.7,54.6,29.94,NE,39,0.0,0.0,96,0.00,,SKC,0.00,VWS V12.07,2013-06-08 07:21:00,
2013-06-08 02:28:00,56.0,54.9,29.94,NE,38,0.0,0.0,96,0.00,,SKC,0.00,VWS V12.07,2013-06-08 07:28:00,
2013-06-08 02:35:00,55.8,54.4,29.94,NE,39,0.0,0.0,95,0.00,,SKC,0.00,VWS V12.07,2013-06-08 07:35:00,
2013-06-08 02:41:00,55.2,53.8,29.94,NE,38,0.0,0.0,95,0.00,,SKC,0.00,VWS V12.07,2013-06-08 07:41:00,
2013-06-08 02:48:00,54.6,53.2,29.94,NE,38,0.0,0.0,95,0.00,,SKC,0.00,VWS V12.07,2013-06-08 07:48:00,
2013-06-08 02:54:00,54.2,52.8,29.94,NE,39,0.0,0.0,95,0.00,,SKC,0.00,VWS V12.07,2013-06-08 07:54:00,
2013-06-08 03:01:00,54.2,53.1,29.94,NE,39,0.0,0.0,96,0.00,,SKC,0.00,VWS V12.07,2013-06-08 08:01:00,
2013-06-08 03:08:00,53.8,52.7,29.94,NE,39,0.0,0.0,96,0.00,,SKC,0.00,VWS V12.07,2013-06-08 08:08:00,
2013-06-08 03:14:00,53.4,52.3,29.94,NE,39,0.0,0.0,96,0.00,,SKC,0.00,VWS V12.07,2013-06-08 08:14:00,
2013-06-08 03:21:00,53.3,52.5,29.93,NE,39,0.0,0.0,97,0.00,,SKC,0.00,VWS V12.07,2013-06-08 08:21:00,
2013-06-08 03:28:00,52.9,52.1,29.93,NE,39,0.0,0.0,97,0.00,,SKC,0.00,VWS V12.07,2013-06-08 08:28:00,
2013-06-08 03:34:00,52.9,52.1,29.93,NE,38,0.0,0.0,97,0.00,,SKC,0.00,VWS V12.07,2013-06-08 08:34:00,
2013-06-08 03:42:00,52.6,51.8,29.93,NE,39,0.0,0.0,97,0.00,,SKC,0.00,VWS V12.07,2013-06-08 08:42:00,
2013-06-08 03:48:00,52.6,51.8,29.93,NE,39,0.0,0.0,97,0.00,,SKC,0.00,VWS V12.07,2013-06-08 08:48:00,
2013-06-08 03:54:00,52.8,52.2,29.93,NE,39,0.0,0.0,98,0.00,,SKC,0.00,VWS V12.07,2013-06-08 08:54:00,
2013-06-08 04:01:00,52.9,52.3,29.93,NE,38,0.0,0.0,98,0.00,,SKC,0.00,VWS V12.07,2013-06-08 09:01:00,
2013-06-08 04:08:00,52.6,52.0,29.93,NE,39,0.0,0.0,98,0.00,,SKC,0.00,VWS V12.07,2013-06-08 09:08:00,
2013-06-08 04:15:00,52.5,52.0,29.93,NE,39,0.0,0.0,98,0.00,,SKC,0.00,VWS V12.07,2013-06-08 09:15:00,
2013-06-08 04:22:00,52.5,52.0,29.94,NE,38,0.0,0.0,98,0.00,,SKC,0.00,VWS V12.07,2013-06-08 09:22:00,
2013-06-08 04:28:00,52.3,51.8,29.94,NE,39,0.0,0.0,98,0.00,,SKC,0.00,VWS V12.07,2013-06-08 09:28:00,
2013-06-08 04:35:00,52.2,51.7,29.94,NE,38,0.0,0.0,98,0.00,,SKC,0.00,VWS V12.07,2013-06-08 09:35:00,
2013-06-08 04:42:00,52.2,51.7,29.94,NE,38,0.0,0.0,98,0.00,,SKC,0.00,VWS V12.07,2013-06-08 09:42:00,
2013-06-08 04:48:00,52.0,51.5,29.94,NE,38,0.0,0.0,98,0.00,,SKC,0.00,VWS V12.07,2013-06-08 09:48:00,
2013-06-08 04:55:00,52.6,52.0,29.94,SE,126,0.0,0.0,98,0.00,,SKC,0.00,VWS V12.07,2013-06-08 09:55:00,
2013-06-08 05:02:00,53.0,52.7,29.94,ESE,120,2.0,2.0,99,0.00,,SKC,0.00,VWS V12.07,2013-06-08 10:02:00,
2013-06-08 05:09:00,53.7,53.4,29.94,ESE,120,1.0,2.0,99,0.00,,SKC,0.00,VWS V12.07,2013-06-08 10:09:00,
2013-06-08 05:15:00,53.5,53.2,29.94,ESE,120,0.0,2.0,99,0.00,,SKC,0.00,VWS V12.07,2013-06-08 10:15:00,
2013-06-08 05:22:00,53.1,52.5,29.94,ESE,120,0.0,2.0,98,0.00,,SKC,0.00,VWS V12.07,2013-06-08 10:22:00,
2013-06-08 05:29:00,53.0,52.5,29.94,ESE,120,0.0,2.0,98,0.00,,SKC,0.00,VWS V12.07,2013-06-08 10:29:00,
2013-06-08 05:34:00,52.6,52.0,29.94,ESE,120,0.0,0.0,98,0.00,,SKC,0.00,VWS V12.07,2013-06-08 10:34:00,
2013-06-08 05:42:00,52.2,51.7,29.94,ESE,120,0.0,0.0,98,0.00,,SKC,0.00,VWS V12.07,2013-06-08 10:42:00,
2013-06-08 05:48:00,52.0,51.5,29.94,ESE,120,0.0,0.0,98,0.00,,SKC,0.00,VWS V12.07,2013-06-08 10:48:00,
2013-06-08 05:54:00,52.1,51.5,29.94,ESE,120,0.0,0.0,98,0.00,,SKC,0.00,VWS V12.07,2013-06-08 10:54:00,
2013-06-08 06:01:00,52.1,51.5,29.94,ESE,120,0.0,0.0,98,0.00,,SKC,0.00,VWS V12.07,2013-06-08 11:01:00,
2013-06-08 06:08:00,52.4,51.8,29.95,ESE,120,0.0,0.0,98,0.00,,SKC,0.00,VWS V12.07,2013-06-08 11:08:00,
2013-06-08 06:14:00,52.3,51.8,29.95,ESE,120,0.0,0.0,98,0.00,,SKC,0.00,VWS V12.07,2013-06-08 11:14:00,
2013-06-08 06:22:00,52.5,52.0,29.95,ESE,120,0.0,0.0,98,0.00,,SKC,0.00,VWS V12.07,2013-06-08 11:22:00,
2013-06-08 06:35:00,53.7,53.4,29.96,ESE,120,0.0,0.0,99,0.00,,SKC,0.00,VWS V12.07,2013-06-08 11:35:00,
2013-06-08 06:42:00,54.7,54.4,29.96,ESE,120,0.0,0.0,99,0.00,,SKC,0.00,VWS V12.07,2013-06-08 11:42:00,
2013-06-08 06:48:00,56.1,55.8,29.96,ESE,120,0.0,0.0,99,0.00,,SKC,0.00,VWS V12.07,2013-06-08 11:48:00,
2013-06-08 06:55:00,57.7,57.4,29.96,ESE,120,0.0,0.0,99,0.00,,SKC,0.00,VWS V12.07,2013-06-08 11:55:00,
2013-06-08 07:02:00,59.0,58.2,29.96,ESE,120,0.0,0.0,97,0.00,,SKC,0.00,VWS V12.07,2013-06-08 12:02:00,
2013-06-08 07:09:00,59.2,57.5,29.96,ESE,120,0.0,0.0,94,0.00,,SKC,0.00,VWS V12.07,2013-06-08 12:09:00,
2013-06-08 07:15:00,59.3,57.9,29.96,ESE,120,0.0,0.0,95,0.00,,SKC,0.00,VWS V12.07,2013-06-08 12:15:00,
2013-06-08 07:22:00,59.9,57.9,29.97,ESE,120,0.0,0.0,93,0.00,,SKC,0.00,VWS V12.07,2013-06-08 12:22:00,
2013-06-08 07:51:00,64.5,60.5,29.96,SSE,151,0.0,0.0,87,0.00,,SKC,0.00,VWS V12.07,2013-06-08 12:51:00,
2013-06-08 07:57:00,64.6,59.7,29.96,SSW,201,0.0,2.0,84,0.00,,SKC,0.00,VWS V12.07,2013-06-08 12:57:00,
2013-06-08 08:04:00,65.0,60.0,29.96,SSW,203,0.0,1.0,84,0.00,,SKC,0.00,VWS V12.07,2013-06-08 13:04:00,
2013-06-08 08:11:00,65.3,60.0,29.95,SE,138,1.0,3.0,83,0.00,,SKC,0.00,VWS V12.07,2013-06-08 13:11:00,
2013-06-08 08:19:00,64.8,58.8,29.95,SE,128,1.0,4.0,81,0.00,,SKC,0.00,VWS V12.07,2013-06-08 13:19:00,
2013-06-08 08:25:00,65.4,59.8,29.96,SW,228,0.0,4.0,82,0.00,,SKC,0.00,VWS V12.07,2013-06-08 13:25:00,
2013-06-08 08:32:00,66.2,59.5,29.95,SE,141,2.0,4.0,79,0.00,,SKC,0.00,VWS V12.07,2013-06-08 13:32:00,
2013-06-08 08:38:00,66.2,58.8,29.95,SSE,148,3.0,5.0,77,0.00,,SKC,0.00,VWS V12.07,2013-06-08 13:38:00,
2013-06-08 08:45:00,66.5,59.8,29.95,SSE,156,3.0,6.0,79,0.00,,SKC,0.00,VWS V12.07,2013-06-08 13:45:00,
2013-06-08 08:52:00,66.9,59.8,29.96,SSE,148,0.0,6.0,78,0.00,,SKC,0.00,VWS V12.07,2013-06-08 13:52:00,
2013-06-08 08:59:00,67.8,60.3,29.96,South,175,0.0,6.0,77,0.00,,SKC,0.00,VWS V12.07,2013-06-08 13:59:00,
2013-06-08 09:05:00,68.4,60.2,29.96,South,173,2.0,5.0,75,0.00,,SKC,0.00,VWS V12.07,2013-06-08 14:05:00,
2013-06-08 09:12:00,68.7,60.1,29.96,ESE,120,1.0,6.0,74,0.00,,SKC,0.00,VWS V12.07,2013-06-08 14:12:00,
2013-06-08 09:19:00,69.2,60.2,29.96,South,174,3.0,6.0,73,0.00,,SKC,0.00,VWS V12.07,2013-06-08 14:19:00,
2013-06-08 09:24:00,69.8,60.4,29.96,SSE,153,3.0,6.0,72,0.00,,SKC,0.00,VWS V12.07,2013-06-08 14:24:00,
2013-06-08 09:34:00,70.6,60.0,29.96,WNW,293,1.0,5.0,69,0.00,,SKC,0.00,VWS V12.07,2013-06-08 14:34:00,
2013-06-08 09:42:00,71.2,60.1,29.95,SSE,153,1.0,6.0,68,0.00,,SKC,0.00,VWS V12.07,2013-06-08 14:42:00,
2013-06-08 09:49:00,71.9,61.6,29.94,SSW,201,1.0,6.0,70,0.00,,SKC,0.00,VWS V12.07,2013-06-08 14:49:00,
2013-06-08 09:55:00,72.4,59.1,29.95,SSE,150,3.0,6.0,63,0.00,,SKC,0.00,VWS V12.07,2013-06-08 14:55:00,
2013-06-08 10:02:00,72.5,60.5,29.95,SSE,156,0.0,3.0,66,0.00,,SKC,0.00,VWS V12.07,2013-06-08 15:02:00,
2013-06-08 10:09:00,72.8,60.8,29.95,West,269,1.0,6.0,66,0.00,,SKC,0.00,VWS V12.07,2013-06-08 15:09:00,
2013-06-08 10:19:00,73.5,61.0,29.95,West,280,1.0,6.0,65,0.00,,SKC,0.00,VWS V12.07,2013-06-08 15:19:00,
2013-06-08 10:25:00,72.9,59.1,29.95,NNW,347,2.0,6.0,62,0.00,,SKC,0.00,VWS V12.07,2013-06-08 15:25:00,
2013-06-08 10:34:00,73.3,59.5,29.95,SSW,208,4.0,4.0,62,0.00,,SKC,0.00,VWS V12.07,2013-06-08 15:34:00,
2013-06-08 10:40:00,73.9,59.6,29.95,NW,309,1.0,4.0,61,0.00,,SKC,0.00,VWS V12.07,2013-06-08 15:40:00,
2013-06-08 10:47:00,74.5,60.6,29.95,East,101,3.0,5.0,62,0.00,,SKC,0.00,VWS V12.07,2013-06-08 15:47:00,
2013-06-08 10:54:00,74.5,59.7,29.95,WSW,248,0.0,8.0,60,0.00,,SKC,0.00,VWS V12.07,2013-06-08 15:54:00,
2013-06-08 11:01:00,74.3,59.5,29.95,SSW,200,0.0,2.0,60,0.00,,SKC,0.00,VWS V12.07,2013-06-08 16:01:00,
2013-06-08 11:09:00,74.1,57.4,29.95,SSE,160,1.0,6.0,56,0.00,,SKC,0.00,VWS V12.07,2013-06-08 16:09:00,
2013-06-08 11:14:00,74.4,59.2,29.95,SSW,208,3.0,6.0,59,0.00,,SKC,0.00,VWS V12.07,2013-06-08 16:14:00,
2013-06-08 11:19:00,74.1,56.9,29.95,SE,129,0.0,6.0,55,0.00,,SKC,0.00,VWS V12.07,2013-06-08 16:19:00,
2013-06-08 11:29:00,73.3,59.0,29.95,WNW,287,0.0,6.0,61,0.00,,SKC,0.00,VWS V12.07,2013-06-08 16:29:00,
2013-06-08 11:34:00,73.9,58.7,29.95,SSE,156,0.0,3.0,59,0.00,,SKC,0.00,VWS V12.07,2013-06-08 16:34:00,
2013-06-08 11:42:00,75.0,58.8,29.96,SW,215,0.0,6.0,57,0.00,,SKC,0.00,VWS V12.07,2013-06-08 16:42:00,
2013-06-08 11:50:00,76.6,59.2,29.95,WNW,297,2.0,6.0,55,0.00,,SKC,0.00,VWS V12.07,2013-06-08 16:50:00,
2013-06-08 11:57:00,77.0,58.6,29.95,SW,235,2.0,6.0,53,0.00,,SKC,0.00,VWS V12.07,2013-06-08 16:57:00,
2013-06-08 12:05:00,75.6,58.3,29.95,WSW,238,1.0,6.0,55,0.00,,SKC,0.00,VWS V12.07,2013-06-08 17:05:00,
2013-06-08 12:12:00,74.5,56.8,29.94,NNW,344,1.0,6.0,54,0.00,,SKC,0.00,VWS V12.07,2013-06-08 17:12:00,
2013-06-08 12:20:00,75.9,59.6,29.95,West,263,1.0,6.0,57,0.00,,SKC,0.00,VWS V12.07,2013-06-08 17:20:00,
2013-06-08 12:29:00,76.9,57.4,29.94,South,181,4.0,6.0,51,0.00,,SKC,0.00,VWS V12.07,2013-06-08 17:29:00,
2013-06-08 12:34:00,76.8,59.4,29.94,WNW,283,1.0,5.0,55,0.00,,SKC,0.00,VWS V12.07,2013-06-08 17:34:00,
2013-06-08 12:39:00,77.2,60.8,29.94,ESE,117,4.0,6.0,57,0.00,,SKC,0.00,VWS V12.07,2013-06-08 17:39:00,
2013-06-08 12:44:00,77.6,59.7,29.94,SSE,155,2.0,9.0,54,0.00,,SKC,0.00,VWS V12.07,2013-06-08 17:44:00,
2013-06-08 12:49:00,77.6,59.7,29.94,SSW,197,6.0,9.0,54,0.00,,SKC,0.00,VWS V12.07,2013-06-08 17:49:00,
2013-06-08 12:59:00,77.2,58.2,29.93,SSE,158,1.0,9.0,52,0.00,,SKC,0.00,VWS V12.07,2013-06-08 17:59:00,
2013-06-08 13:04:00,77.4,59.0,29.93,ENE,70,1.0,8.0,53,0.00,,SKC,0.00,VWS V12.07,2013-06-08 18:04:00,
2013-06-08 13:09:00,77.6,58.6,29.93,WSW,243,2.0,8.0,52,0.00,,SKC,0.00,VWS V12.07,2013-06-08 18:09:00,
2013-06-08 13:15:00,78.5,61.0,29.93,South,183,2.0,8.0,55,0.00,,SKC,0.00,VWS V12.07,2013-06-08 18:15:00,
2013-06-08 13:22:00,77.7,59.2,29.93,SSE,155,3.0,8.0,53,0.00,,SKC,0.00,VWS V12.07,2013-06-08 18:22:00,
2013-06-08 13:29:00,78.1,58.5,29.93,SW,228,2.0,8.0,51,0.00,,SKC,0.00,VWS V12.07,2013-06-08 18:29:00,
2013-06-08 13:35:00,78.7,58.0,29.93,SSW,207,2.0,7.0,49,0.00,,SKC,0.00,VWS V12.07,2013-06-08 18:35:00,
2013-06-08 13:42:00,78.4,58.2,29.92,SE,145,4.0,7.0,50,0.00,,SKC,0.00,VWS V12.07,2013-06-08 18:42:00,
2013-06-08 13:50:00,77.8,58.2,29.92,NNE,33,0.0,7.0,51,0.00,,SKC,0.00,VWS V12.07,2013-06-08 18:50:00,
2013-06-08 13:57:00,77.8,57.7,29.92,NNW,347,0.0,7.0,50,0.00,,SKC,0.00,VWS V12.07,2013-06-08 18:57:00,
2013-06-08 14:04:00,78.1,57.4,29.92,SSE,148,2.0,8.0,49,0.00,,SKC,0.00,VWS V12.07,2013-06-08 19:04:00,
2013-06-08 14:11:00,78.2,57.5,29.92,WSW,243,1.0,8.0,49,0.00,,SKC,0.00,VWS V12.07,2013-06-08 19:11:00,
2013-06-08 14:19:00,78.8,58.0,29.91,West,263,5.0,8.0,49,0.00,,SKC,0.00,VWS V12.07,2013-06-08 19:19:00,
2013-06-08 14:26:00,78.2,57.5,29.91,WSW,247,1.0,8.0,49,0.00,,SKC,0.00,VWS V12.07,2013-06-08 19:26:00,
2013-06-08 14:34:00,79.1,58.9,29.91,WNW,285,2.0,6.0,50,0.00,,SKC,0.00,VWS V12.07,2013-06-08 19:34:00,
2013-06-08 14:40:00,79.4,59.2,29.91,West,278,1.0,6.0,50,0.00,,SKC,0.00,VWS V12.07,2013-06-08 19:40:00,
2013-06-08 14:47:00,78.6,58.4,29.91,SSE,153,0.0,6.0,50,0.00,,SKC,0.00,VWS V12.07,2013-06-08 19:47:00,
2013-06-08 14:55:00,79.1,60.5,29.91,South,179,0.0,7.0,53,0.00,,SKC,0.00,VWS V12.07,2013-06-08 19:55:00,
2013-06-08 15:04:00,79.7,58.9,29.92,SE,128,2.0,7.0,49,0.00,,SKC,0.00,VWS V12.07,2013-06-08 20:04:00,
2013-06-08 15:14:00,79.1,59.4,29.91,West,262,2.0,7.0,51,0.00,,SKC,0.00,VWS V12.07,2013-06-08 20:14:00,
2013-06-08 15:19:00,79.0,57.7,29.91,South,185,0.0,7.0,48,0.00,,SKC,0.00,VWS V12.07,2013-06-08 20:19:00,
2013-06-08 15:29:00,78.8,57.5,29.91,SE,126,4.0,7.0,48,0.00,,SKC,0.00,VWS V12.07,2013-06-08 20:29:00,
2013-06-08 15:34:00,79.0,59.9,29.90,SE,144,2.0,6.0,52,0.00,,SKC,0.00,VWS V12.07,2013-06-08 20:34:00,
2013-06-08 15:44:00,78.6,58.4,29.90,SE,126,3.0,9.0,50,0.00,,SKC,0.00,VWS V12.07,2013-06-08 20:44:00,
2013-06-08 15:49:00,78.6,59.0,29.90,SE,130,3.0,9.0,51,0.00,,SKC,0.00,VWS V12.07,2013-06-08 20:49:00,
2013-06-08 15:59:00,77.7,59.2,29.90,SE,133,2.0,9.0,53,0.00,,SKC,0.00,VWS V12.07,2013-06-08 20:59:00,
2013-06-08 16:04:00,77.3,57.8,29.91,SSE,168,1.0,6.0,51,0.00,,SKC,0.00,VWS V12.07,2013-06-08 21:04:00,
2013-06-08 16:09:00,77.5,57.4,29.91,SE,139,1.0,6.0,50,0.00,,SKC,0.00,VWS V12.07,2013-06-08 21:09:00,
2013-06-08 16:19:00,78.9,57.0,29.90,South,174,3.0,6.0,47,0.00,,SKC,0.00,VWS V12.07,2013-06-08 21:19:00,
2013-06-08 16:24:00,79.2,57.2,29.90,West,262,0.0,6.0,47,0.00,,SKC,0.00,VWS V12.07,2013-06-08 21:24:00,
2013-06-08 16:34:00,80.3,60.0,29.90,SW,227,5.0,5.0,50,0.00,,SKC,0.00,VWS V12.07,2013-06-08 21:34:00,
2013-06-08 16:44:00,80.7,58.0,29.90,South,191,2.0,6.0,46,0.00,,SKC,0.00,VWS V12.07,2013-06-08 21:44:00,
2013-06-08 16:54:00,80.8,58.1,29.90,SW,231,2.0,6.0,46,0.00,,SKC,0.00,VWS V12.07,2013-06-08 21:54:00,
2013-06-08 17:04:00,79.9,56.7,29.90,SE,145,3.0,6.0,45,0.00,,SKC,0.00,VWS V12.07,2013-06-08 22:04:00,
2013-06-08 17:14:00,79.2,58.4,29.90,South,188,0.0,6.0,49,0.00,,SKC,0.00,VWS V12.07,2013-06-08 22:14:00,
2013-06-08 17:24:00,80.3,60.0,29.90,SW,218,2.0,6.0,50,0.00,,SKC,0.00,VWS V12.07,2013-06-08 22:24:00,
2013-06-08 17:31:00,80.7,60.3,29.90,SSE,160,1.0,5.0,50,0.00,,SKC,0.00,VWS V12.07,2013-06-08 22:31:00,
2013-06-08 17:39:00,80.5,57.8,29.90,ESE,119,5.0,5.0,46,0.00,,SKC,0.00,VWS V12.07,2013-06-08 22:39:00,
2013-06-08 17:45:00,79.8,57.2,29.90,ESE,122,3.0,7.0,46,0.00,,SKC,0.00,VWS V12.07,2013-06-08 22:45:00,
2013-06-08 17:54:00,80.3,57.7,29.89,South,191,3.0,7.0,46,0.00,,SKC,0.00,VWS V12.07,2013-06-08 22:54:00,
2013-06-08 18:02:00,80.0,59.1,29.89,West,276,0.0,4.0,49,0.00,,SKC,0.00,VWS V12.07,2013-06-08 23:02:00,
2013-06-08 18:09:00,79.3,59.1,29.89,SE,135,0.0,5.0,50,0.00,,SKC,0.00,VWS V12.07,2013-06-08 23:09:00,
2013-06-08 18:20:00,78.7,57.4,29.89,SE,127,3.0,5.0,48,0.00,,SKC,0.00,VWS V12.07,2013-06-08 23:20:00,
2013-06-08 18:29:00,78.2,58.1,29.89,SW,219,3.0,6.0,50,0.00,,SKC,0.00,VWS V12.07,2013-06-08 23:29:00,
2013-06-08 18:40:00,79.1,58.3,29.89,SE,135,1.0,4.0,49,0.00,,SKC,0.00,VWS V12.07,2013-06-08 23:40:00,
2013-06-08 18:49:00,79.0,58.2,29.89,SSE,150,0.0,5.0,49,0.00,,SKC,0.00,VWS V12.07,2013-06-08 23:49:00,
2013-06-08 18:59:00,79.1,58.3,29.89,SSE,150,1.0,5.0,49,0.00,,SKC,0.00,VWS V12.07,2013-06-08 23:59:00,
2013-06-08 19:05:00,78.8,57.5,29.89,SE,146,2.0,3.0,48,0.00,,SKC,0.00,VWS V12.07,2013-06-09 00:05:00,
2013-06-08 19:14:00,78.4,58.2,29.89,SSE,156,1.0,4.0,50,0.00,,SKC,0.00,VWS V12.07,2013-06-09 00:14:00,
2013-06-08 19:24:00,77.9,57.8,29.88,SE,134,1.0,5.0,50,0.00,,SKC,0.00,VWS V12.07,2013-06-09 00:24:00,
2013-06-08 19:34:00,77.1,58.1,29.88,SW,222,2.0,5.0,52,0.00,,SKC,0.00,VWS V12.07,2013-06-09 00:34:00,
2013-06-08 19:39:00,76.6,57.1,29.88,SSE,167,4.0,7.0,51,0.00,,SKC,0.00,VWS V12.07,2013-06-09 00:39:00,
2013-06-08 19:44:00,76.2,57.3,29.88,SSE,155,1.0,7.0,52,0.00,,SKC,0.00,VWS V12.07,2013-06-09 00:44:00,
2013-06-08 19:49:00,75.8,57.5,29.88,SSE,162,2.0,7.0,53,0.00,,SKC,0.00,VWS V12.07,2013-06-09 00:49:00,
2013-06-08 19:58:00,75.0,57.2,29.88,SE,129,2.0,7.0,54,0.00,,SKC,0.00,VWS V12.07,2013-06-09 00:58:00,
2013-06-08 20:06:00,74.3,57.6,29.88,South,172,1.0,5.0,56,0.00,,SKC,0.00,VWS V12.07,2013-06-09 01:06:00,
2013-06-08 20:14:00,73.3,57.2,29.88,SE,144,2.0,5.0,57,0.00,,SKC,0.00,VWS V12.07,2013-06-09 01:14:00,
2013-06-08 20:20:00,72.5,56.9,29.88,SE,138,2.0,5.0,58,0.00,,SKC,0.00,VWS V12.07,2013-06-09 01:20:00,
2013-06-08 20:29:00,71.5,56.9,29.88,SSE,165,1.0,5.0,60,0.00,,SKC,0.00,VWS V12.07,2013-06-09 01:29:00,
2013-06-08 20:35:00,71.0,56.9,29.89,South,171,1.0,5.0,61,0.00,,SKC,0.00,VWS V12.07,2013-06-09 01:35:00,
2013-06-08 20:42:00,70.3,56.7,29.89,SE,129,3.0,5.0,62,0.00,,SKC,0.00,VWS V12.07,2013-06-09 01:42:00,
2013-06-08 20:50:00,69.8,56.7,29.89,SE,138,1.0,5.0,63,0.00,,SKC,0.00,VWS V12.07,2013-06-09 01:50:00,
2013-06-08 20:59:00,69.0,56.8,29.89,SE,139,0.0,5.0,65,0.00,,SKC,0.00,VWS V12.07,2013-06-09 01:59:00,
2013-06-08 21:09:00,68.2,56.4,29.90,SE,139,0.0,0.0,66,0.00,,SKC,0.00,VWS V12.07,2013-06-09 02:09:00,
2013-06-08 21:14:00,67.7,56.8,29.91,SE,138,0.0,0.0,68,0.00,,SKC,0.00,VWS V12.07,2013-06-09 02:14:00,
2013-06-08 21:19:00,67.0,56.5,29.91,SE,138,0.0,0.0,69,0.00,,SKC,0.00,VWS V12.07,2013-06-09 02:19:00,
2013-06-08 21:29:00,66.2,57.3,29.91,SE,138,0.0,0.0,73,0.00,,SKC,0.00,VWS V12.07,2013-06-09 02:29:00,
2013-06-08 21:34:00,66.1,56.8,29.91,SE,136,0.0,0.0,72,0.00,,SKC,0.00,VWS V12.07,2013-06-09 02:34:00,
2013-06-08 21:39:00,66.4,56.7,29.91,SE,132,1.0,3.0,71,0.00,,SKC,0.00,VWS V12.07,2013-06-09 02:39:00,
2013-06-08 21:47:00,66.6,56.9,29.91,SE,136,3.0,3.0,71,0.00,,SKC,0.00,VWS V12.07,2013-06-09 02:47:00,
2013-06-08 21:54:00,66.8,56.7,29.92,SE,136,3.0,4.0,70,0.00,,SKC,0.00,VWS V12.07,2013-06-09 02:54:00,
2013-06-08 22:02:00,66.9,57.2,29.92,SE,146,1.0,3.0,71,0.00,,SKC,0.00,VWS V12.07,2013-06-09 03:02:00,
2013-06-08 22:09:00,66.7,57.0,29.92,SE,134,1.0,3.0,71,0.00,,SKC,0.00,VWS V12.07,2013-06-09 03:09:00,
2013-06-08 22:14:00,66.6,56.9,29.92,SE,138,3.0,4.0,71,0.00,,SKC,0.00,VWS V12.07,2013-06-09 03:14:00,
2013-06-08 22:20:00,66.5,56.8,29.92,SE,141,3.0,5.0,71,0.00,,SKC,0.00,VWS V12.07,2013-06-09 03:20:00,
2013-06-08 22:25:00,66.2,56.5,29.92,SE,142,4.0,5.0,71,0.00,,SKC,0.00,VWS V12.07,2013-06-09 03:25:00,
2013-06-08 22:33:00,66.0,56.7,29.92,SE,141,2.0,5.0,72,0.00,,SKC,0.00,VWS V12.07,2013-06-09 03:33:00,
2013-06-08 22:39:00,65.8,56.5,29.92,SE,131,4.0,5.0,72,0.00,,SKC,0.00,VWS V12.07,2013-06-09 03:39:00,
2013-06-08 22:45:00,65.6,56.7,29.92,SE,134,3.0,5.0,73,0.00,,SKC,0.00,VWS V12.07,2013-06-09 03:45:00,
2013-06-08 22:52:00,65.4,56.5,29.91,SE,143,2.0,5.0,73,0.00,,SKC,0.00,VWS V12.07,2013-06-09 03:52:00,
2013-06-08 22:59:00,65.2,56.7,29.91,SE,134,3.0,5.0,74,0.00,,SKC,0.00,VWS V12.07,2013-06-09 03:59:00,
2013-06-08 23:04:00,65.1,56.6,29.91,SE,137,4.0,5.0,74,0.00,,SKC,0.00,VWS V12.07,2013-06-09 04:04:00,
2013-06-08 23:10:00,64.9,56.4,29.91,SE,128,4.0,5.0,74,0.00,,SKC,0.00,VWS V12.07,2013-06-09 04:10:00,
2013-06-08 23:14:00,64.8,56.7,29.91,SE,131,2.0,5.0,75,0.00,,SKC,0.00,VWS V12.07,2013-06-09 04:14:00,
2013-06-08 23:19:00,64.8,56.7,29.91,SE,142,4.0,6.0,75,0.00,,SKC,0.00,VWS V12.07,2013-06-09 04:19:00,
2013-06-08 23:22:00,64.8,56.7,29.91,SSE,165,3.0,6.0,75,0.00,,SKC,0.00,VWS V12.07,2013-06-09 04:22:00,
2013-06-08 23:29:00,64.8,56.7,29.91,SE,136,3.0,7.0,75,0.00,,SKC,0.00,VWS V12.07,2013-06-09 04:29:00,
2013-06-08 23:35:00,64.7,56.6,29.90,SE,136,2.0,7.0,75,0.00,,SKC,0.00,VWS V12.07,2013-06-09 04:35:00,
2013-06-08 23:39:00,64.7,56.6,29.91,SSE,152,3.0,7.0,75,0.00,,SKC,0.00,VWS V12.07,2013-06-09 04:39:00,
2013-06-08 23:45:00,64.6,56.5,29.91,SE,128,3.0,7.0,75,0.00,,SKC,0.00,VWS V12.07,2013-06-09 04:45:00,
2013-06-08 23:52:00,64.6,56.5,29.91,SSE,151,2.0,7.0,75,0.00,,SKC,0.00,VWS V12.07,2013-06-09 04:52:00,
2013-06-08 23:59:00,64.5,56.4,29.91,SSE,160,1.0,7.0,75,0.00,,SKC,0.00,VWS V12.07,2013-06-09 04:59:00,